This demonstration page uses our WeatherBlox Daily Observations layout. Learn more.

Left ArrowRight Arrow

Hourly Observations for July 6, 2022

Temp ( °F °C ) Dew Point ( °F °C ) Humidity (%) Winds ( mph kmh ) Pressure ( in mb ) Visibility ( mi km ) Precip ( " mm )
12:56 am 00:56 Mostly Cloudy 73 23 68 19.9 83 83 SE 8 13 29.87 1012 10 16 0.00 0.00
1:56 am 01:56 Mostly Cloudy 73 22.9 69 20.4 86 86 SSE 6 9 29.87 1012 10 16 0.00 0.00
2:56 am 02:56 Mostly Cloudy 73 22.7 68 20 85 85 Calm 29.87 1012 10 16 0.00 0.00
3:49 am 03:49 Mostly Cloudy with Drizzle 73 23 70 21 89 89 W 6 9 29.90 1013 7 11 0.00 0.00
3:56 am 03:56 Mostly Cloudy with Drizzle 74 23.1 69 20.6 86 86 W 5 7 29.89 1012 10 16 0.00 0.00
4:56 am 04:56 Partly Cloudy with Light Rain 73 22.8 70 21.2 91 91 Calm 29.92 1013 10 16 0.00 0.00
5:56 am 05:56 Mostly Cloudy with Light Rain 74 23.1 70 21.3 90 90 W 7 11 29.98 1015 5 8 0.00 0.00
6:56 am 06:56 Mostly Cloudy with Light Rain 72 22.2 69 20.5 90 90 NNE 10 17 29.94 1014 5 8 0.00 0.00
7:56 am 07:56 Mostly Cloudy with Light Rain 72 22.3 67 19.6 85 85 Calm 29.92 1013 10 16 0.00 0.00
8:56 am 08:56 Cloudy 73 22.9 69 20.4 86 86 Calm 29.94 1014 10 16 0.00 0.00
9:56 am 09:56 Cloudy 74 23.2 69 20.5 85 85 Calm 29.93 1014 10 16 0.00 0.00
10:56 am 10:56 Mostly Cloudy 75 23.8 70 21.1 85 85 Calm 29.96 1015 10 16 0.00 0.00
11:56 am 11:56 Mostly Cloudy 76 24.5 70 21 81 81 E 8 13 29.95 1014 10 16 0.00 0.00
12:56 pm 12:56 Cloudy 78 25.3 69 20.7 76 76 E 6 9 29.96 1015 10 16 0.00 0.00
1:56 pm 13:56 Cloudy 77 25.1 69 20.8 77 77 E 7 11 29.99 1016 10 16 0.00 0.00
2:56 pm 14:56 Mostly Cloudy 78 25.3 70 21.2 78 78 E 5 7 30.00 1016 10 16 0.00 0.00
3:56 pm 15:56 Cloudy 77 25.1 70 21 78 78 ENE 5 7 30.00 1016 10 16 0.00 0.00
4:56 pm 16:56 Cloudy with Light Showers 75 24.1 72 22 88 88 NE 5 7 29.99 1016 9 14 0.06 1.52
5:56 pm 17:56 Mostly Cloudy with Light Showers 75 23.8 72 22.2 91 91 E 6 9 29.97 1015 10 16 0.11 2.79
7:56 pm 19:56 Mostly Sunny 77 24.9 72 22.2 85 85 E 5 7 29.95 1014 10 16 0.00 0.00
8:56 pm 20:56 Partly Cloudy 75 24 72 22 89 89 Calm 29.98 1015 10 16 0.00 0.00
9:56 pm 21:56 Cloudy 74 23.6 72 22 91 91 ENE 3 6 29.97 1015 10 16 0.00 0.00
10:56 pm 22:56 Mostly Clear 74 23.5 71 21.7 90 90 Calm 29.95 1014 10 16 0.00 0.00
11:56 pm 23:56 Mostly Cloudy 74 23.3 71 21.9 92 92 ENE 6 9 29.95 1014 10 16 0.00 0.00

Powered by AerisWeather